BOX462 CYYZ-EDDF

Flight info

Callsign BOX462
Flight time N/A
Altitude 33000
Route VERDO7 LORKA Q907 MIILS N513A ALLRY/M083F350 NATT SOVED/N0475F350 DCT KUGUR DCT BELOX L603 DOLAS DCT NAVPI DCT NOLRU DCT DIXAT DIXAT1B
Aircraft B77L/H-SDE1E2E3FGHIJ2J3J4J5M1RWXY/LB1D1

Departure

Time 2026-05-04 00:54
Airport Toronto Pearson International Airport (CYYZ)

Arrival

Time N/A
Airport Frankfurt Main Airport (EDDF)
Time Latitude Longitude Altitude Speed Heading
2026-05-04 00:25 43.67809 -79.63328 560 ft 0 kts 316°
2026-05-04 00:39 43.67806 -79.63325 560 ft 2 kts 316°
2026-05-04 00:39 43.67795 -79.63311 560 ft 2 kts 325°
2026-05-04 00:39 43.67782 -79.63301 561 ft 2 kts 339°
2026-05-04 00:39 43.67768 -79.63296 561 ft 2 kts 351°
2026-05-04 00:40 43.67754 -79.63294 561 ft 2 kts
2026-05-04 00:40 43.67739 -79.63297 561 ft 2 kts 15°
2026-05-04 00:40 43.67725 -79.63305 560 ft 2 kts 28°
2026-05-04 00:40 43.67712 -79.63316 560 ft 2 kts 40°
2026-05-04 00:41 43.67707 -79.63324 560 ft 0 kts 46°
2026-05-04 00:45 43.67707 -79.63323 560 ft 0 kts 46°
2026-05-04 00:45 43.67724 -79.63300 561 ft 8 kts 46°
2026-05-04 00:45 43.67786 -79.63209 564 ft 17 kts 46°
2026-05-04 00:45 43.67865 -79.63098 567 ft 14 kts 45°
2026-05-04 00:46 43.67918 -79.63022 569 ft 6 kts 46°
2026-05-04 00:46 43.67948 -79.62978 570 ft 6 kts 45°
2026-05-04 00:46 43.67989 -79.62963 570 ft 7 kts 345°
2026-05-04 00:46 43.68034 -79.63011 569 ft 9 kts 316°
2026-05-04 00:47 43.68098 -79.63097 565 ft 16 kts 315°
2026-05-04 00:47 43.68200 -79.63233 561 ft 23 kts 316°
2026-05-04 00:47 43.68334 -79.63409 556 ft 29 kts 316°
2026-05-04 00:47 43.68498 -79.63623 550 ft 33 kts 316°
2026-05-04 00:48 43.68652 -79.63824 546 ft 23 kts 316°
2026-05-04 00:48 43.68733 -79.63932 546 ft 9 kts 315°
2026-05-04 00:48 43.68772 -79.63976 546 ft 5 kts 336°
2026-05-04 00:48 43.68820 -79.63959 546 ft 9 kts 43°
2026-05-04 00:49 43.68901 -79.63847 549 ft 26 kts 46°
2026-05-04 00:49 43.69041 -79.63646 550 ft 29 kts 46°
2026-05-04 00:49 43.69165 -79.63464 554 ft 17 kts 42°
2026-05-04 00:49 43.69265 -79.63422 555 ft 14 kts
2026-05-04 00:50 43.69314 -79.63419 554 ft 0 kts 358°
2026-05-04 00:50 43.69318 -79.63419 554 ft 2 kts 358°
2026-05-04 00:50 43.69328 -79.63420 554 ft 0 kts 354°
2026-05-04 00:51 43.69329 -79.63420 554 ft 0 kts 354°
2026-05-04 00:51 43.69339 -79.63423 554 ft 3 kts 347°
2026-05-04 00:52 43.69375 -79.63452 554 ft 8 kts 319°
2026-05-04 00:52 43.69398 -79.63519 553 ft 7 kts 255°
2026-05-04 00:52 43.69366 -79.63574 552 ft 7 kts 225°
2026-05-04 00:52 43.69350 -79.63597 551 ft 0 kts 225°
2026-05-04 00:53 43.69340 -79.63611 551 ft 14 kts 225°
2026-05-04 00:53 43.69103 -79.63952 549 ft 83 kts 226°
2026-05-04 00:53 43.68549 -79.64754 549 ft 145 kts 226°
2026-05-04 00:53 43.67751 -79.65912 797 ft 176 kts 226°
2026-05-04 00:54 43.66939 -79.67160 1444 ft 179 kts 232°
2026-05-04 00:54 43.66197 -79.68536 2157 ft 187 kts 236°
2026-05-04 00:54 43.65431 -79.70040 2801 ft 201 kts 237°
2026-05-04 00:54 43.64619 -79.71645 3524 ft 213 kts 238°
2026-05-04 00:55 43.63776 -79.73309 4461 ft 215 kts 238°
2026-05-04 00:55 43.62793 -79.74882 5314 ft 227 kts 222°
2026-05-04 00:55 43.61621 -79.75737 5860 ft 249 kts 203°
2026-05-04 00:55 43.59827 -79.75849 6680 ft 275 kts 174°
2026-05-04 00:56 43.58080 -79.74616 7460 ft 301 kts 141°
2026-05-04 00:56 43.56930 -79.72144 8273 ft 316 kts 108°
2026-05-04 00:56 43.56461 -79.69202 9227 ft 317 kts 100°
2026-05-04 00:56 43.56099 -79.66235 10117 ft 319 kts 99°
2026-05-04 00:57 43.55737 -79.63186 10672 ft 333 kts 99°
2026-05-04 00:57 43.55357 -79.59985 11188 ft 349 kts 98°
2026-05-04 00:57 43.54952 -79.56576 11702 ft 366 kts 98°
2026-05-04 00:57 43.54534 -79.53067 12252 ft 380 kts 98°
2026-05-04 00:58 43.54100 -79.49442 12827 ft 394 kts 98°
2026-05-04 00:58 43.53860 -79.45659 13340 ft 407 kts 87°
2026-05-04 00:58 43.54149 -79.41708 13881 ft 417 kts 75°
2026-05-04 00:58 43.54984 -79.37882 14619 ft 419 kts 64°
2026-05-04 00:59 43.56237 -79.34309 15452 ft 421 kts 59°
2026-05-04 00:59 43.57589 -79.30722 16292 ft 424 kts 59°
2026-05-04 00:59 43.58940 -79.27104 16993 ft 430 kts 59°
2026-05-04 00:59 43.60304 -79.23417 17661 ft 437 kts 60°
2026-05-04 01:00 43.61690 -79.19641 18343 ft 443 kts 60°
2026-05-04 01:00 43.63077 -79.15842 19012 ft 448 kts 60°
2026-05-04 01:00 43.64459 -79.12037 19738 ft 451 kts 60°
2026-05-04 01:00 43.65875 -79.08125 20419 ft 455 kts 60°
2026-05-04 01:01 43.67279 -79.04237 21082 ft 458 kts 60°
2026-05-04 01:01 43.68714 -79.00255 21720 ft 462 kts 60°
2026-05-04 01:01 43.70138 -78.96295 22305 ft 466 kts 60°
2026-05-04 01:01 43.71582 -78.92271 22898 ft 470 kts 60°
2026-05-04 01:02 43.73030 -78.88229 23441 ft 474 kts 60°
2026-05-04 01:02 43.74498 -78.84125 23978 ft 478 kts 59°
2026-05-04 01:02 43.75966 -78.80012 24533 ft 481 kts 60°
2026-05-04 01:02 43.77455 -78.75833 25104 ft 483 kts 60°
2026-05-04 01:03 43.78907 -78.71673 25612 ft 487 kts 60°
2026-05-04 01:03 43.80360 -78.67471 26065 ft 490 kts 60°
2026-05-04 01:03 43.81833 -78.63207 26512 ft 493 kts 60°
2026-05-04 01:03 43.83317 -78.58906 26974 ft 496 kts 60°
2026-05-04 01:04 43.84806 -78.54584 27397 ft 499 kts 60°
2026-05-04 01:04 43.86295 -78.50259 27830 ft 501 kts 60°
2026-05-04 01:04 43.87780 -78.45937 28217 ft 503 kts 60°
2026-05-04 01:04 43.89301 -78.41507 28559 ft 506 kts 60°
2026-05-04 01:05 43.90800 -78.37131 28923 ft 508 kts 60°
2026-05-04 01:05 43.92315 -78.32702 29284 ft 510 kts 61°
2026-05-04 01:05 43.93820 -78.28295 29648 ft 512 kts 61°
2026-05-04 01:05 43.95341 -78.23834 30058 ft 512 kts 61°
2026-05-04 01:06 43.96859 -78.19373 30505 ft 510 kts 61°
2026-05-04 01:06 43.98357 -78.14967 30936 ft 509 kts 61°
2026-05-04 01:06 43.99863 -78.10527 31298 ft 508 kts 61°
2026-05-04 01:06 44.01358 -78.06114 31587 ft 508 kts 61°
2026-05-04 01:07 44.02850 -78.01705 31880 ft 508 kts 61°
2026-05-04 01:07 44.04358 -77.97239 32180 ft 506 kts 61°
2026-05-04 01:07 44.05833 -77.92863 32458 ft 505 kts 61°
2026-05-04 01:07 44.07327 -77.88424 32694 ft 503 kts 61°
2026-05-04 01:08 44.08806 -77.84026 32800 ft 506 kts 61°
2026-05-04 01:08 44.11813 -77.75060 32836 ft 515 kts 61°
2026-05-04 01:09 44.14863 -77.65935 32846 ft 524 kts 61°
2026-05-04 01:09 44.17928 -77.56728 32839 ft 530 kts 62°
2026-05-04 01:10 44.21257 -77.47555 32840 ft 529 kts 54°
2026-05-04 01:10 44.25172 -77.38869 32830 ft 530 kts 54°
2026-05-04 01:11 44.29074 -77.30219 32824 ft 531 kts 54°
2026-05-04 01:11 44.32066 -77.23563 32823 ft 531 kts 54°
2026-05-04 01:12 44.32401 -77.22815 32821 ft 531 kts 54°
2026-05-04 01:12 44.35969 -77.14844 32820 ft 531 kts 54°
2026-05-04 01:13 44.39845 -77.06157 32813 ft 530 kts 54°
2026-05-04 01:13 44.43723 -76.97433 32813 ft 530 kts 54°
2026-05-04 01:14 44.47602 -76.88683 32821 ft 530 kts 55°
2026-05-04 01:14 44.51477 -76.79910 32815 ft 531 kts 54°
2026-05-04 01:15 44.55346 -76.71127 32811 ft 531 kts 54°
2026-05-04 01:15 44.59214 -76.62316 32811 ft 531 kts 55°
2026-05-04 01:16 44.63060 -76.53529 32814 ft 531 kts 55°
2026-05-04 01:16 44.66904 -76.44719 32812 ft 530 kts 55°
2026-05-04 01:17 44.70739 -76.35904 32813 ft 531 kts 55°
2026-05-04 01:17 44.74547 -76.27124 32804 ft 531 kts 56°
2026-05-04 01:18 44.77879 -76.17814 32802 ft 535 kts 66°
2026-05-04 01:18 44.80445 -76.08074 32796 ft 535 kts 67°
2026-05-04 01:19 44.83001 -75.98235 32796 ft 535 kts 68°
2026-05-04 01:19 44.85545 -75.88397 32790 ft 535 kts 67°
2026-05-04 01:20 44.88070 -75.78584 32794 ft 535 kts 67°
2026-05-04 01:20 44.90583 -75.68780 32791 ft 535 kts 67°
2026-05-04 01:21 44.93089 -75.58960 32795 ft 535 kts 67°
2026-05-04 01:21 44.95591 -75.49110 32802 ft 535 kts 68°
2026-05-04 01:22 44.98091 -75.39230 32798 ft 535 kts 68°
2026-05-04 01:22 45.00583 -75.29333 32796 ft 536 kts 68°
2026-05-04 01:23 45.03061 -75.19453 32797 ft 536 kts 68°
2026-05-04 01:23 45.05538 -75.09535 32801 ft 535 kts 68°
2026-05-04 01:24 45.07992 -74.99667 32804 ft 535 kts 68°
2026-05-04 01:24 45.10449 -74.89742 32805 ft 536 kts 68°
2026-05-04 01:25 45.12900 -74.79797 32801 ft 535 kts 69°
2026-05-04 01:25 45.15431 -74.70007 32795 ft 534 kts 66°
2026-05-04 01:26 45.18072 -74.60214 32801 ft 534 kts 66°
2026-05-04 01:26 45.20696 -74.50415 32803 ft 533 kts 66°
2026-05-04 01:27 45.23309 -74.40593 32810 ft 533 kts 66°
2026-05-04 01:27 45.25908 -74.30773 32812 ft 533 kts 68°
2026-05-04 01:28 45.28488 -74.20980 32807 ft 533 kts 68°
2026-05-04 01:28 45.31071 -74.11128 32808 ft 533 kts 68°
2026-05-04 01:29 45.33637 -74.01299 32801 ft 532 kts 68°
2026-05-04 01:29 45.36204 -73.91426 32805 ft 532 kts 68°
2026-05-04 01:30 45.38743 -73.81615 32810 ft 532 kts 68°
2026-05-04 01:30 45.41278 -73.71780 32805 ft 532 kts 68°
2026-05-04 01:31 45.43811 -73.61913 32798 ft 532 kts 68°
2026-05-04 01:31 45.46320 -73.52093 32808 ft 532 kts 68°
2026-05-04 01:32 45.48837 -73.42201 32811 ft 532 kts 68°
2026-05-04 01:32 45.51335 -73.32344 32793 ft 531 kts 69°
2026-05-04 01:33 45.53828 -73.22462 32787 ft 531 kts 69°
2026-05-04 01:33 45.56314 -73.12567 32801 ft 531 kts 69°
2026-05-04 01:34 45.58785 -73.02687 32791 ft 532 kts 69°
2026-05-04 01:34 45.61254 -72.92771 32779 ft 532 kts 69°
2026-05-04 01:35 45.63719 -72.82831 32786 ft 532 kts 69°
2026-05-04 01:35 45.66171 -72.72897 32782 ft 532 kts 69°
2026-05-04 01:36 45.68582 -72.63084 32776 ft 516 kts 69°
2026-05-04 01:36 45.69747 -72.58325 32776 ft 503 kts 69°
2026-05-04 01:36 45.70895 -72.53629 32772 ft 498 kts 69°
2026-05-04 01:37 45.73185 -72.44238 32778 ft 502 kts 69°
2026-05-04 01:37 45.75465 -72.34847 32782 ft 501 kts 70°
2026-05-04 01:38 45.77740 -72.25434 32784 ft 501 kts 70°
2026-05-04 01:38 45.80004 -72.16028 32786 ft 501 kts 70°
2026-05-04 01:39 45.82250 -72.06654 32789 ft 501 kts 70°
2026-05-04 01:39 45.84495 -71.97247 32783 ft 500 kts 70°
2026-05-04 01:40 45.86735 -71.87823 32780 ft 501 kts 70°
2026-05-04 01:40 45.88963 -71.78407 32779 ft 502 kts 70°
2026-05-04 01:41 45.91197 -71.68924 32774 ft 501 kts 70°
2026-05-04 01:41 45.93407 -71.59502 32772 ft 501 kts 71°
2026-05-04 01:42 45.95618 -71.50040 32772 ft 502 kts 71°
2026-05-04 01:42 45.97813 -71.40599 32773 ft 500 kts 71°
2026-05-04 01:43 46.00016 -71.31088 32766 ft 500 kts 71°
2026-05-04 01:43 46.02197 -71.21629 32766 ft 500 kts 72°
2026-05-04 01:44 46.04352 -71.12240 32766 ft 499 kts 72°
2026-05-04 01:44 46.06525 -71.02733 32768 ft 499 kts 72°
2026-05-04 01:45 46.08675 -70.93284 32764 ft 500 kts 72°
2026-05-04 01:45 46.11888 -70.79082 32759 ft 500 kts 72°
2026-05-04 01:46 46.14025 -70.69589 32756 ft 500 kts 72°
2026-05-04 01:46 46.16165 -70.60036 32755 ft 501 kts 72°
2026-05-04 01:47 46.18285 -70.50530 32752 ft 500 kts 73°
2026-05-04 01:47 46.20396 -70.41022 32743 ft 499 kts 73°
2026-05-04 01:48 46.22492 -70.31537 32736 ft 498 kts 74°
2026-05-04 01:48 46.24576 -70.22020 32729 ft 497 kts 74°
2026-05-04 01:49 46.26609 -70.12491 32726 ft 497 kts 75°
2026-05-04 01:49 46.28618 -70.03032 32719 ft 495 kts 75°
2026-05-04 01:50 46.30616 -69.93587 32713 ft 494 kts 75°
2026-05-04 01:50 46.32623 -69.84058 32708 ft 494 kts 75°
2026-05-04 01:51 46.34597 -69.74641 32706 ft 494 kts 75°
2026-05-04 01:51 46.36581 -69.65138 32707 ft 495 kts 75°
2026-05-04 01:52 46.38557 -69.55626 32706 ft 494 kts 75°
2026-05-04 01:52 46.40536 -69.46059 32707 ft 493 kts 75°
2026-05-04 01:53 46.42478 -69.36628 32704 ft 492 kts 75°
2026-05-04 01:53 46.44426 -69.27119 32709 ft 491 kts 76°
2026-05-04 01:54 46.46355 -69.17656 32707 ft 491 kts 76°
2026-05-04 01:54 46.48270 -69.08221 32707 ft 491 kts 76°
2026-05-04 01:55 46.50177 -68.98775 32692 ft 490 kts 76°
2026-05-04 01:55 46.52085 -68.89282 32691 ft 489 kts 76°
2026-05-04 01:56 46.53976 -68.79829 32677 ft 489 kts 76°
2026-05-04 01:56 46.55857 -68.70380 32679 ft 489 kts 76°
2026-05-04 01:57 46.57725 -68.60953 32675 ft 488 kts 76°
2026-05-04 01:57 46.59595 -68.51468 32685 ft 488 kts 76°
2026-05-04 01:58 46.61446 -68.42030 32680 ft 488 kts 76°
2026-05-04 01:58 46.63284 -68.32616 32681 ft 487 kts 77°
2026-05-04 01:59 46.65127 -68.23130 32683 ft 487 kts 77°
2026-05-04 01:59 46.66944 -68.13731 32680 ft 486 kts 77°
2026-05-04 02:00 46.68764 -68.04273 32676 ft 485 kts 77°
2026-05-04 02:00 46.70562 -67.94877 32671 ft 485 kts 77°
2026-05-04 02:01 46.72360 -67.85438 32655 ft 484 kts 77°
2026-05-04 02:01 46.74146 -67.76021 32652 ft 483 kts 77°
2026-05-04 02:02 46.75912 -67.66662 32632 ft 482 kts 77°
2026-05-04 02:02 46.77680 -67.57245 32624 ft 481 kts 77°
2026-05-04 02:03 46.79431 -67.47874 32629 ft 481 kts 77°
2026-05-04 02:03 46.81172 -67.38509 32590 ft 480 kts 77°
2026-05-04 02:04 46.82901 -67.29163 32600 ft 479 kts 78°
2026-05-04 02:04 46.84621 -67.19822 32605 ft 478 kts 78°
2026-05-04 02:05 46.86335 -67.10459 32595 ft 478 kts 78°
2026-05-04 02:05 46.88497 -67.01296 32590 ft 480 kts 68°
2026-05-04 02:06 46.91343 -66.92587 32553 ft 480 kts 67°
2026-05-04 02:06 46.94230 -66.83750 32555 ft 481 kts 67°
2026-05-04 02:07 46.97078 -66.74992 32551 ft 480 kts 67°
2026-05-04 02:07 46.99930 -66.66182 32552 ft 481 kts 67°
2026-05-04 02:08 47.02773 -66.57364 32550 ft 481 kts 67°
2026-05-04 02:08 47.05612 -66.48526 32552 ft 482 kts 68°
2026-05-04 02:09 47.08450 -66.39661 32553 ft 481 kts 67°
2026-05-04 02:09 47.11292 -66.30750 32559 ft 481 kts 68°
2026-05-04 02:10 47.14091 -66.21944 32537 ft 480 kts 68°
2026-05-04 02:10 47.16912 -66.13037 32551 ft 481 kts 68°
2026-05-04 02:11 47.19713 -66.04161 32552 ft 481 kts 68°
2026-05-04 02:11 47.22512 -65.95261 32560 ft 481 kts 69°
2026-05-04 02:12 47.25306 -65.86347 32549 ft 479 kts 68°
2026-05-04 02:12 47.28069 -65.77500 32552 ft 481 kts 69°
2026-05-04 02:13 47.30843 -65.68587 32546 ft 478 kts 69°
2026-05-04 02:13 47.33611 -65.59659 32535 ft 480 kts 69°
2026-05-04 02:14 47.36362 -65.50757 32522 ft 478 kts 69°
2026-05-04 02:14 47.39092 -65.41891 32532 ft 478 kts 69°
2026-05-04 02:15 47.41822 -65.32994 32537 ft 477 kts 69°
2026-05-04 02:15 47.44540 -65.24102 32523 ft 477 kts 69°
2026-05-04 02:16 47.47254 -65.15196 32533 ft 476 kts 70°
2026-05-04 02:16 47.49952 -65.06305 32542 ft 476 kts 70°
2026-05-04 02:17 47.52631 -64.97449 32525 ft 476 kts 70°